"Pseudo-MPEC" for CELY6P2

Created 2026 May 12 5:35:07 UT using Find_Orb

Click here for an explanation of pseudo-MPECs

 
 Astrometry: 
     CELY6P2*1C2026 05 11.41888217 01 06.251+17 46 19.92   ~5BAo 20.83GVNEOCPG96
     CELY6P2 1C2026 05 11.42400617 01 05.934+17 46 35.58   ~5BAo 21.66GVNEOCPG96
     CELY6P2 1C2026 05 11.42913417 01 05.653+17 46 51.13   ~5BAo 20.52GVNEOCPG96
     CELY6P2 1C2026 05 11.43426017 01 05.347+17 47 06.86   ~5BAo       VNEOCPG96
     CELY6P2 1C2026 05 11.46030117 01 03.943+17 48 27.07   ~5BBK 20.51GVNEOCPV06
     CELY6P2 1C2026 05 11.46164317 01 03.882+17 48 31.18   ~5BBK 20.51GVNEOCPV06
     CELY6P2 1C2026 05 11.46298317 01 03.803+17 48 35.06   ~5BBK 20.75GVNEOCPV06
     CELY6P2 1C2026 05 11.46432317 01 03.731+17 48 39.31   ~5BBK 20.84GVNEOCPV06
     CELY6P2 0C2026 05 11.99375117 01 16.214+18 19 46.99   ~5C0o 19.9 GWNEOCPJ95
     CELY6P2 0C2026 05 12.00138317 01 15.850+18 20 18.67   ~5C0o 20.2 GWNEOCPJ95
     CELY6P2 0C2026 05 12.00912717 01 15.480+18 20 51.68   ~5C0o 20.9 GWNEOCPJ95

Station data:
(G96) Mt. Lemmon Survey  (N32.442729 W110.788720)  US/Arizona.  Observer E.
   J. Christensen. Measurers T. Beuden, V. F. Carvajal, D. Fay, J. B.
   Fazekas, D. C. Fuls, A. R. Gibbs, A. D. Grauer, H. Gröller, J. K. Hogan,
   R. A. Kowalski, S. M. Larson, G. J. Leonard, D. Rankin, R. L. Seaman, F.
   C. Shelly, K. W. Wierzchoś. 1.5-m reflector + 10K CCD.
(J95) Great Shefford  (N51.474969 W1.447003)  UK/England.  Observer P.
   Birtwhistle. 0.41-m f/6.3 Schmidt-Cassegrain + CCD.
(V06) Catalina Sky Survey-Kuiper  (N32.416871 W110.732550)  US/Arizona.
   Measurers T. Beuden, V. F. Carvajal, D. Fay, J. B. Fazekas, D. C. Fuls, A.
   R. Gibbs, A. D. Grauer, H. Gröller, J. K. Hogan, R. A. Kowalski, S. M.
   Larson, G. J. Leonard, D. Rankin, R. L. Seaman, F. C. Shelly, K. W.
   Wierzchoś. 1.55-m reflector + CCD.

Orbital elements:  CELY6P2
   Perihelion 2026 Jul 16.331756 +/- 1.03 TT =  7:57:43.7 (JD 2461237.831756)
Epoch 2026 May 12.0 TT = JDT 2461172.5   Earth MOID: 0.0031   Ve: 0.0052
M 305.496663677 +/- 2.2             (J2000 ecliptic)             AutoNEOCP
n   0.834254882 +/- 0.021           Peri.  287.846987 +/- 0.6
a   1.117558359 +/- 0.0188          Node    54.881611 +/- 0.12
e   0.48283649 +/- 0.0122           Incl.   25.409421 +/- 0.8
P   1.181/431.515d         H 25.78  G  0.15   U 10.1
q 0.577960403 +/- 0.0039    Q 1.657156314 +/- 0.0414
From 11 observations 2026 May 11-12 (14.2 hr); mean residual 0".28
Residuals in arcseconds: 
260511 G96  .13-  .41+    260511 V06  .23+  .07-    260511 J95  .47+  .36+    
260511 G96  .41-  .25+    260511 V06  .37+  .08-    260512 J95  .04-  .27-    
260511 G96  .21-  .01-    260511 V06  .26+  .32-    260512 J95  .42-  .08-    
260511 G96  .40-  .09-    260511 V06  .24+  .19-    

Ephemerides (geocentric):
Date (UTC) HH   RA             Dec           delta  r     elong  mag " sig PA
---- --------  ------------   ------------  ------ ------ -----  --- --------
2026 05 12 06  17 01 13.095   +18 40 33.64  .04078 1.0394 134.9 20.6 1.41  73
2026 05 12 07  17 01 13.288   +18 43 52.79  .04031 1.0390 134.9 20.6 1.72  60
2026 05 12 08  17 01 13.478   +18 47 16.55  .03984 1.0387 134.9 20.5 2.13  50
2026 05 12 09  17 01 13.666   +18 50 45.09  .03937 1.0383 134.9 20.5 2.62  43
2026 05 12 10  17 01 13.850   +18 54 18.59  .03889 1.0380 134.8 20.5 3.21  37
2026 05 12 11  17 01 14.032   +18 57 57.22  .03842 1.0376 134.8 20.5 3.87  33
2026 05 12 12  17 01 14.212   +19 01 41.19  .03795 1.0373 134.7 20.4 4.62  29
2026 05 12 13  17 01 14.388   +19 05 30.68  .03747 1.0369 134.7 20.4 5.46  26
2026 05 12 14  17 01 14.562   +19 09 25.92  .03700 1.0366 134.7 20.4 6.39  24
2026 05 12 15  17 01 14.733   +19 13 27.14  .03653 1.0362 134.6 20.4 7.41  22
2026 05 12 16  17 01 14.901   +19 17 34.55  .03605 1.0359 134.6 20.3 8.53  20
2026 05 12 17  17 01 15.066   +19 21 48.42  .03558 1.0355 134.5 20.3 9.75  19
2026 05 12 18  17 01 15.229   +19 26 09.00  .03511 1.0352 134.5 20.3 11.1  17
2026 05 12 19  17 01 15.388   +19 30 36.57  .03464 1.0348 134.5 20.3 12.6  16
2026 05 12 20  17 01 15.545   +19 35 11.42  .03416 1.0345 134.4 20.2 14.1  15
2026 05 12 21  17 01 15.699   +19 39 53.85  .03369 1.0341 134.4 20.2 15.9  14
2026 05 12 22  17 01 15.849   +19 44 44.20  .03322 1.0338 134.3 20.2 17.7  14
2026 05 12 23  17 01 15.997   +19 49 42.79  .03275 1.0334 134.3 20.1 19.8  13
2026 05 13 00  17 01 16.142   +19 54 50.00  .03227 1.0331 134.2 20.1 21.9  12
2026 05 13 01  17 01 16.283   +20 00 06.21  .03180 1.0327 134.1 20.1 24.3  11
2026 05 13 02  17 01 16.422   +20 05 31.82  .03133 1.0324 134.1 20.0 26.9  11
2026 05 13 03  17 01 16.557   +20 11 07.26  .03086 1.0320 134.0 20.0 29.7  10
2026 05 13 04  17 01 16.689   +20 16 53.00  .03039 1.0317 133.9 20.0 32.6  10
2026 05 13 05  17 01 16.818   +20 22 49.52  .02991 1.0313 133.9 19.9 35.9   9
2026 05 13 06  17 01 16.944   +20 28 57.33  .02944 1.0310 133.8 19.9 39.4   9
2026 05 13 07  17 01 17.066   +20 35 16.99  .02897 1.0306 133.7 19.9 43.1   9
2026 05 13 08  17 01 17.184   +20 41 49.09  .02850 1.0303 133.7 19.8 47.2   8
2026 05 13 09  17 01 17.300   +20 48 34.25  .02803 1.0299 133.6 19.8 51.6   8
2026 05 13 10  17 01 17.411   +20 55 33.14  .02756 1.0296 133.5 19.8 56.3   8
2026 05 13 11  17 01 17.520   +21 02 46.47  .02709 1.0292 133.4 19.7 61.4   7
2026 05 13 12  17 01 17.624   +21 10 15.01  .02661 1.0289 133.3 19.7 67.0   7
2026 05 13 13  17 01 17.725   +21 17 59.59  .02614 1.0285 133.2 19.7 72.9   7
2026 05 13 14  17 01 17.821   +21 26 01.06  .02567 1.0282 133.1 19.6 79.4   6
2026 05 13 15  17 01 17.914   +21 34 20.39  .02520 1.0278 133.0 19.6 86.3   6
2026 05 13 16  17 01 18.003   +21 42 58.59  .02473 1.0275 132.9 19.6 93.9   6
2026 05 13 17  17 01 18.088   +21 51 56.74  .02426 1.0271 132.8 19.5  102   6
2026 05 13 18  17 01 18.168   +22 01 16.03  .02379 1.0268 132.7 19.5  111   5
2026 05 13 19  17 01 18.244   +22 10 57.73  .02332 1.0264 132.6 19.4  120   5
2026 05 13 20  17 01 18.316   +22 21 03.21  .02285 1.0261 132.4 19.4  131   5
2026 05 13 21  17 01 18.382   +22 31 33.96  .02238 1.0257 132.3 19.4  142   5
2026 05 13 22  17 01 18.444   +22 42 31.60  .02191 1.0254 132.2 19.3  154   5
2026 05 13 23  17 01 18.501   +22 53 57.87  .02144 1.0250 132.0 19.3  167   4
2026 05 14 00  17 01 18.552   +23 05 54.69  .02098 1.0247 131.8 19.2  182   4
2026 05 14 01  17 01 18.598   +23 18 24.14  .02051 1.0243 131.7 19.2  197   4
2026 05 14 02  17 01 18.639   +23 31 28.48  .02004 1.0239 131.5 19.1  215   4
2026 05 14 03  17 01 18.673   +23 45 10.20  .01957 1.0236 131.3 19.1  233   4
2026 05 14 04  17 01 18.701   +23 59 32.02  .01910 1.0232 131.1 19.0  254   4
2026 05 14 05  17 01 18.723   +24 14 36.94  .01864 1.0229 130.9 19.0  276   4